TimeCDT,TemperatureF,Dew PointF,Humidity,Sea Level PressureIn,VisibilityMPH,Wind Direction,Wind SpeedMPH,Gust SpeedMPH,PrecipitationIn,Events,Conditions,WindDirDegrees,DateUTC
12:54 AM,54.0,45.0,72,29.94,10.0,South,5.8,-,N/A,,Clear,190,2013-09-30 05:54:00
1:54 AM,52.0,45.0,77,29.93,10.0,South,6.9,-,N/A,,Clear,170,2013-09-30 06:54:00
2:54 AM,51.1,45.0,80,29.91,10.0,SSE,5.8,-,N/A,,Clear,160,2013-09-30 07:54:00
3:54 AM,51.1,44.1,77,29.91,10.0,South,6.9,-,N/A,,Clear,180,2013-09-30 08:54:00
4:54 AM,51.1,45.0,80,29.89,10.0,SSE,8.1,-,N/A,,Clear,160,2013-09-30 09:54:00
5:54 AM,52.0,46.0,80,29.90,10.0,South,6.9,-,N/A,,Clear,170,2013-09-30 10:54:00
6:54 AM,51.1,46.0,83,29.90,10.0,SSE,4.6,-,N/A,,Clear,150,2013-09-30 11:54:00
7:54 AM,53.1,46.9,80,29.89,10.0,South,10.4,-,N/A,,Clear,170,2013-09-30 12:54:00
8:54 AM,55.9,46.9,72,29.89,10.0,South,13.8,-,N/A,,Clear,180,2013-09-30 13:54:00
9:54 AM,62.1,48.0,60,29.88,10.0,South,11.5,-,N/A,,Clear,180,2013-09-30 14:54:00
10:54 AM,64.0,48.9,58,29.88,10.0,South,17.3,23.0,N/A,,Clear,170,2013-09-30 15:54:00
11:54 AM,68.0,50.0,52,29.86,10.0,South,16.1,-,N/A,,Clear,180,2013-09-30 16:54:00
12:54 PM,71.1,50.0,47,29.84,10.0,South,17.3,26.5,N/A,,Clear,170,2013-09-30 17:54:00
1:54 PM,73.0,50.0,44,29.81,10.0,South,17.3,27.6,N/A,,Clear,180,2013-09-30 18:54:00
2:54 PM,73.9,46.9,38,29.78,10.0,South,19.6,32.2,N/A,,Clear,180,2013-09-30 19:54:00
3:54 PM,75.0,48.0,38,29.76,10.0,South,17.3,27.6,N/A,,Clear,170,2013-09-30 20:54:00
4:54 PM,75.0,48.0,38,29.75,10.0,South,21.9,25.3,N/A,,Clear,190,2013-09-30 21:54:00
5:54 PM,73.0,48.0,41,29.74,10.0,South,15.0,23.0,N/A,,Clear,190,2013-09-30 22:54:00
6:54 PM,70.0,48.9,47,29.74,10.0,South,11.5,-,N/A,,Clear,180,2013-09-30 23:54:00
7:54 PM,66.0,50.0,56,29.76,10.0,South,8.1,-,N/A,,Clear,180,2013-10-01 00:54:00
8:54 PM,62.1,51.1,67,29.77,10.0,South,6.9,-,N/A,,Clear,170,2013-10-01 01:54:00
9:54 PM,60.1,52.0,75,29.78,10.0,South,6.9,-,N/A,,Clear,170,2013-10-01 02:54:00
10:54 PM,60.1,53.1,78,29.78,10.0,South,8.1,-,N/A,,Clear,180,2013-10-01 03:54:00
11:54 PM,59.0,54.0,83,29.79,10.0,South,5.8,-,N/A,,Clear,170,2013-10-01 04:54:00